#timestamp,LO_Frequency,Hit,StdDev 
1647806415.7,286047001.9,N
1647806435.5,286046998.5,N
1647806455.3,286046999.6,N
1647806475.2,286046998.1,N
1647806495.0,286046998.4,N
1647806495.9,286046998.4,N
1647806515.8,286047000.4,N
1647806535.6,286046999.9,N
1647806555.4,286047000.3,N
1647806575.3,286047000.5,N
1647806595.1,286047001.2,N
1647806615.8,286046999.9,N
1647806635.7,286047001.2,N
1647806655.5,286046998.4,N
1647806675.4,286046999.0,N
1647806695.2,286047001.2,N
1647806715.0,286046998.1,N
1647806715.9,286046998.1,N
1647806735.8,286046998.5,N
1647806755.6,286046998.6,N
1647806775.4,286046999.3,N
1647806795.3,286046998.7,N
1647806815.1,286046999.4,N
1647806835.9,286046996.9,N
1647806855.7,286047000.5,N
1647806875.5,286046999.1,N
1647806895.4,286047000.7,N
1647806915.2,286046996.6,N
1647806935.0,286046997.1,N
1647806935.9,286046997.1,N
1647806955.8,286046996.9,N
1647806975.6,286046998.7,N
1647806995.5,286046998.5,N
1647807015.3,286046997.4,N
1647807035.1,286046995.2,Y
1647807055.9,286046996.9,P
1647807075.7,286046996.6,P
1647807095.6,286047001.1,N
1647807115.4,286047001.0,N
1647807135.2,286047002.1,N
1647807155.1,286047002.0,N
1647807156.0,286047002.0,N
1647807175.8,286047001.5,N
1647807195.7,286046999.9,N
1647807215.5,286046998.6,N
1647807235.3,286046998.1,N
1647807255.2,286046999.9,N
1647807275.0,286047000.8,N
1647807275.9,286047000.8,N
1647807295.7,286046998.7,N
1647807315.6,286047000.8,N
1647807335.4,286047000.3,N
1647807355.3,286046998.3,N
1647807375.1,286046998.9,N
1647807395.8,286046998.6,N
1647807415.7,286047000.8,N
1647807435.5,286046999.7,N
1647807455.4,286047000.8,N
1647807475.2,286046999.8,N
1647807495.0,286046998.7,N
1647807495.9,286046998.7,N
1647807515.8,286046999.5,N
1647807535.6,286046999.1,N
1647807555.5,286046998.4,N
1647807575.3,286047001.2,N
1647807595.1,286046998.4,N
1647807615.9,286046998.5,N
1647807635.7,286046999.0,N
1647807655.6,286047000.7,N
1647807675.4,286046999.7,N
1647807695.2,286047001.0,N
1647807715.1,286047000.4,N
1647807716.0,286047000.4,N
1647807735.8,286047002.0,N
1647807755.6,286047002.5,N
1647807775.5,286047000.4,N
1647807795.3,286047001.1,N
1647807815.2,286047000.7,N
1647807835.9,286046998.6,N
1647807855.7,286046998.5,N
1647807875.6,286046998.3,N
1647807895.4,286046996.5,Y
1647807915.2,286046996.9,P
1647807935.1,286046999.5,N
1647807936.0,286046999.5,N
1647807955.8,286046996.5,Y
1647807975.7,286046998.8,P
1647807995.5,286047000.1,N
1647808015.3,286046998.3,N
1647808035.2,286046998.6,N
1647808055.0,286047001.0,N
1647808055.9,286047001.0,N
1647808075.8,286047001.2,N
1647808095.6,286047001.2,N
1647808115.4,286046998.1,N
1647808135.3,286047000.4,N
1647808155.1,286047000.9,N
1647808156.0,286047000.9,N
1647808175.8,286046999.8,N
1647808195.7,286047004.3,Y
1647808215.5,286047001.7,P
1647808235.4,286047002.1,N
1647808255.2,286046999.9,N
1647808275.0,286047000.2,N
1647808275.9,286047000.2,N
1647808295.8,286047000.3,N
1647808315.6,286047000.3,N
1647808335.4,286047002.7,Y
1647808355.3,286047001.5,P
1647808375.1,286047001.5,P
1647808395.9,286047002.1,P
1647808415.7,286046999.9,N
1647808435.5,286047002.7,Y
1647808455.4,286047002.6,P
1647808475.2,286047000.6,N
1647808495.0,286047000.4,N
1647808496.0,286047000.4,N
1647808515.8,286047001.4,N
1647808535.6,286047001.9,N
1647808555.5,286047004.3,Y
1647808575.3,286046999.9,P
1647808595.1,286046999.9,N
1647808615.9,286046998.9,N
1647808635.7,286047000.0,N
1647808655.6,286047001.0,N
1647808675.4,286047000.7,N
1647808695.2,286046998.3,N
1647808715.1,286046998.6,N
1647808716.0,286046998.6,N
1647808735.8,286046999.0,N
1647808755.6,286046999.6,N
1647808775.5,286046999.6,N
1647808795.3,286046997.1,Y
1647808815.2,286046996.9,P
1647808835.0,286046999.1,N
1647808835.9,286046999.1,N
1647808855.7,286046999.0,N
1647808875.6,286046999.3,N
1647808895.4,286047001.2,N
1647808915.3,286046997.1,N
1647808935.1,286047001.2,N
1647808936.0,286047001.2,N
1647808955.8,286047000.1,N
1647808975.7,286046999.4,N
1647808995.5,286046999.6,N
1647809015.3,286046998.8,N
1647809035.2,286046996.9,N
1647809055.0,286046997.6,N
1647809055.9,286046997.6,N
1647809075.8,286046999.5,N
1647809095.6,286046997.7,N
1647809115.4,286046997.8,N
1647809135.3,286046997.0,N
1647809155.1,286046998.0,N
1647809175.8,286046995.5,Y
1647809195.7,286046995.1,P
1647809215.5,286046993.7,P
1647809235.4,286046994.7,N
1647809255.2,286046994.5,N
1647809275.0,286046992.2,Y
1647809275.9,286046992.2,P
1647809295.8,286046999.3,N
1647809315.6,286046999.4,N
1647809335.5,286046997.5,N
1647809355.3,286046997.7,N
1647809375.1,286046996.8,N
1647809395.9,286046996.0,N
1647809415.7,286046995.6,N
1647809435.6,286046995.7,N
1647809485.4,286046998.8,E
1647809495.3,286047001.0,N
1647809515.2,286046998.5,P
1647809535.0,286046998.8,N
1647809535.9,286046998.8,N
1647809555.8,286046998.8,N
1647809575.6,286046996.7,Y
1647809595.4,286046999.3,P
1647809615.3,286047000.2,N
1647809635.1,286047000.9,N
1647809655.8,286047000.0,N
1647809675.7,286047000.7,N
1647809695.5,286046998.8,N
1647809715.4,286046997.5,Y
1647809735.2,286046996.2,P
1647809755.0,286046995.3,N
1647809755.9,286046995.3,N
1647809775.8,286046995.0,N
1647809795.6,286046997.7,N
1647809815.5,286046997.4,N
1647809835.3,286046997.2,N
1647809855.1,286046997.0,N
1647809875.9,286046997.1,N
1647809895.7,286046999.0,N
1647809915.5,286046999.0,N
1647809935.4,286046996.6,N
1647809955.2,286046997.2,N
1647809975.1,286046997.0,N
1647809976.0,286046997.0,N
1647809995.8,286046997.0,N
